Location: Unspecified
(0.0000°N, 0.0000°E)
Time: 10:42:07
(UTC+02:00)

Amateur Radio Satellites - All Passes

Search period start: 27 September 2016 10:12
Search period end: 28 September 2016 10:12
Location: Unspecified, 0.0000°N, 0.0000°E

Satellite Date Start Highest point End Downlink Frequencies (MHz)
Time Altitude Azimuth
UWE-3 27 Sep 10:17:58 10:22:22 60° 102° (ESE) 10:26:54 435.000/436.395/437.385
CINEMA 3 27 Sep 10:21:27 10:23:40 14° 280° (W) 10:25:55 145.822/145.860
GONETS M04 27 Sep 10:30:24 10:38:50 52° 273° (W) 10:47:19
COMPASS 1 27 Sep 10:32:07 10:35:52 33° 281° (WNW) 10:39:38 437.405
SRMSAT 27 Sep 10:40:07 10:44:58 25° 197° (SSW) 10:49:51 437.500
ZACube-1 27 Sep 10:49:44 10:54:11 87° 286° (WNW) 10:58:46 437.345
Oscar 11 27 Sep 10:50:01 10:54:22 90° 82° (E) 10:58:44 145.826/435.025
Cosmos 2499 27 Sep 11:02:30 11:08:50 29° 272° (W) 11:14:53 435.465 / 435.565
TIGRISAT 27 Sep 11:07:15 11:09:47 15° 79° (ENE) 11:12:16 435.000
DELFI C3 27 Sep 11:17:41 11:21:38 69° 101° (E) 11:25:35 145.870
HUMSAT D 27 Sep 11:20:00 11:23:43 29° 102° (ESE) 11:27:27 437.325/437.525
PRISM 27 Sep 11:41:16 11:41:35 10° 257° (WSW) 11:41:55 437.425
UNISAT 6 27 Sep 11:45:41 11:50:03 62° 78° (ENE) 11:54:18 437.425
FUNcube-1 27 Sep 11:46:02 11:48:50 16° 281° (W) 11:51:39 145.935
ANTELSAT 27 Sep 12:21:20 12:25:27 39° 258° (WSW) 12:29:28 437.575/2403.000
JAS-2 27 Sep 12:27:25 12:30:00 13° 74° (ENE) 12:32:40 435.910
QB50P2 27 Sep 12:29:48 12:32:50 19° 78° (ENE) 12:35:50 145.880/145.840
POLYITAN 1 27 Sep 12:32:02 12:35:04 19° 78° (ENE) 12:38:04 437.675
SRMSAT 27 Sep 12:32:20 12:34:53 13° 189° (S) 12:37:27 437.500
AISAT 27 Sep 12:41:19 12:43:49 15° 103° (ESE) 12:46:20 437.250
TIGRISAT 27 Sep 12:42:50 12:46:13 22° 258° (WSW) 12:49:32 435.000
BEESAT 3 27 Sep 12:43:13 12:46:56 41° 68° (ENE) 12:50:39 437.485
HUMSAT D 27 Sep 12:57:48 12:59:04 11° 282° (WNW) 13:00:20 437.325/437.525
50 SAT 27 Sep 13:04:38 13:07:42 26° 101° (ESE) 13:10:47 437.505
DUCHIFAT 1 27 Sep 13:10:13 13:14:22 59° 79° (ENE) 13:18:30 145.980
QB50P1 27 Sep 13:11:13 13:15:28 75° 77° (ENE) 13:19:39 145.935-145.965
BUGSAT 1 27 Sep 13:17:17 13:20:34 22° 79° (ENE) 13:23:49 437.445
DX 1 27 Sep 13:18:51 13:22:28 26° 102° (ESE) 13:26:05 434.975-435.025
ESTCUBE 1 27 Sep 13:19:52 13:24:19 60° 282° (WNW) 13:28:45 437.505/2401.250
VELOX 1 27 Sep 13:23:10 13:27:28 58° 102° (ESE) 13:31:47 145.980
POPSAT HIP 1 27 Sep 13:24:39 13:28:53 70° 259° (W) 13:33:04 437.405
JUGNU 27 Sep 13:29:18 13:31:58 13° 170° (S) 13:34:40 437.505
CUBEBUG 1 27 Sep 13:29:46 13:34:04 78° 281° (WNW) 13:38:22 437.445
BEESAT 2 27 Sep 13:36:32 13:40:31 78° 248° (WSW) 13:44:29 435.950
NANOSAT C BR1 27 Sep 13:41:52 13:45:50 40° 258° (WSW) 13:49:46 145.865
AUBIESAT-1 27 Sep 13:43:52 13:47:14 61° 106° (ESE) 13:50:50 437.475
TISAT 1 27 Sep 14:05:32 14:06:59 12° 103° (ESE) 14:08:26 437.305
QB50P2 27 Sep 14:05:40 14:08:21 16° 258° (WSW) 14:11:02 145.880/145.840
POLYITAN 1 27 Sep 14:07:56 14:10:35 16° 258° (WSW) 14:13:14 437.675
JAS-2 27 Sep 14:09:18 14:14:34 45° 259° (WSW) 14:20:25 435.910
Oscar 19 27 Sep 14:11:05 14:14:25 17° 77° (ENE) 14:17:44 437.125/150
SPROUT 27 Sep 14:14:56 14:19:04 52° 282° (WNW) 14:23:14 437.525
AISAT 27 Sep 14:16:37 14:20:01 22° 282° (WNW) 14:23:26 437.250
M-CUBED/EXP-1 PRIME 27 Sep 14:21:15 14:23:49 20° 284° (WNW) 14:26:29 437.505
UKube-1 27 Sep 14:27:25 14:31:26 41° 282° (WNW) 14:35:30 .
SO-50 27 Sep 14:38:39 14:42:40 26° 112° (ESE) 14:46:41 436.795
YUBILEINY 27 Sep 14:52:10 14:57:28 18° 87° (E) 15:02:46 435.215
BUGSAT 1 27 Sep 14:53:34 14:55:39 14° 257° (WSW) 14:57:45 437.445
DX 1 27 Sep 14:56:37 14:58:23 12° 282° (WNW) 15:00:10 434.975-435.025
Gurwin Techsat 1B 27 Sep 15:01:01 15:05:29 27° 77° (ENE) 15:09:55 435.225
JUGNU 27 Sep 15:16:44 15:21:42 26° 162° (SSE) 15:26:40 437.505
ITUPSAT 1 27 Sep 15:33:04 15:37:01 26° 103° (ESE) 15:40:58 437.325
TISAT 1 27 Sep 15:38:53 15:42:20 26° 282° (WNW) 15:45:50 437.305
SWISSCUBE 27 Sep 15:45:58 15:50:32 45° 103° (ESE) 15:55:07 437.505
Oscar 19 27 Sep 15:49:01 15:53:27 29° 257° (WSW) 15:57:53 437.125/150
AIST 2 27 Sep 15:51:39 15:55:50 85° 253° (WSW) 16:00:00 435.215
BEESAT 27 Sep 15:58:53 16:03:35 59° 102° (ESE) 16:08:18 436.000
AO-7 27 Sep 16:08:18 16:14:14 22° 73° (ENE) 16:20:07 29.400- 29.500
SRMSAT 27 Sep 16:12:19 16:15:33 15° 168° (SSE) 16:18:47 437.500
Cosmos 2491 27 Sep 16:12:53 16:21:39 85° 274° (W) 16:30:25 435.465 / 435.565
Cosmos 2504 27 Sep 16:12:54 16:19:15 26° 88° (E) 16:25:54 435.465 / 435.565
PCSat 27 Sep 16:13:03 16:18:06 41° 71° (ENE) 16:23:09 145.827
SO-50 27 Sep 16:19:45 16:22:55 17° 293° (WNW) 16:26:03 436.795
ITAMSAT 1 27 Sep 16:39:46 16:44:58 85° 77° (ENE) 16:50:07 435.822/435.867
Gurwin Techsat 1B 27 Sep 16:41:29 16:45:08 19° 257° (WSW) 16:48:47 435.225
YUBILEINY 27 Sep 16:45:28 16:53:50 55° 267° (W) 17:02:18 435.215
JUGNU 27 Sep 17:04:56 17:10:55 68° 159° (SSE) 17:16:54 437.505
ITUPSAT 1 27 Sep 17:11:35 17:14:34 17° 283° (WNW) 17:17:34 437.325
MOZHAYETS 4 27 Sep 17:31:50 17:36:28 75° 282° (WNW) 17:41:06
AO-7 27 Sep 17:58:38 18:06:37 50° 254° (WSW) 18:14:35 29.400- 29.500
PCSat 27 Sep 17:58:59 18:01:14 13° 250° (WSW) 18:03:30 145.827
SRMSAT 27 Sep 18:00:04 18:05:19 31° 161° (SSE) 18:10:32 437.500
HORYU 2 27 Sep 18:00:35 18:03:26 17° 78° (ENE) 18:06:16 437.375
KKS-1 27 Sep 18:02:33 18:06:47 47° 282° (WNW) 18:11:04 437.445
Cosmos 2504 27 Sep 18:05:00 18:12:10 38° 266° (W) 18:19:53 435.465 / 435.565
AIST 1 27 Sep 18:12:26 18:16:37 66° 86° (E) 18:20:51
STARS 27 Sep 18:38:15 18:42:18 38° 282° (WNW) 18:46:23 437.465
CUBESAT XI-V 27 Sep 18:49:43 18:54:22 90° 98° (E) 18:59:00 437.345
JUGNU 27 Sep 18:54:19 19:00:00 44° 339° (NNW) 19:05:40 437.505
LilacSat-2 27 Sep 19:11:26 19:13:55 17° 79° (E) 19:16:23 437.200
NOAA 18 27 Sep 19:11:27 19:14:55 17° 77° (ENE) 19:18:20 137.9125
GOMX 1 27 Sep 19:17:30 19:22:29 36° 78° (ENE) 19:27:25 467.674
BRITE-PL 27 Sep 19:24:07 19:29:35 73° 259° (WSW) 19:35:15 437.365/2234.400
RS-15 27 Sep 19:30:57 19:41:30 51° 110° (ESE) 19:52:28 29.354- 29.394
ISS 27 Sep 19:36:13 19:39:16 38° 305° (NW) 19:42:18 145.825
HORYU 2 27 Sep 19:36:25 19:39:43 21° 257° (WSW) 19:43:00 437.375
CUSAT 1 27 Sep 19:42:51 19:46:51 34° 91° (E) 19:51:55 437.405
DOVE 4 27 Sep 19:42:57 19:47:16 26° 79° (E) 19:51:28 437.250
SRMSAT 27 Sep 19:48:38 19:54:38 83° 158° (SSE) 20:00:35 437.500
NOAA 15 27 Sep 19:59:28 20:04:44 73° 257° (WSW) 20:10:00 137.62
O/OREOS (USA 219) 27 Sep 20:02:10 20:06:36 52° 256° (WSW) 20:11:01 437.305
Cubesat XI-IV 27 Sep 20:13:30 20:18:47 66° 257° (WSW) 20:24:02 437.490
CUTE-I 27 Sep 20:13:52 20:19:07 64° 257° (WSW) 20:24:22 437.470
AO-85 27 Sep 20:18:46 20:23:12 26° 112° (ESE) 20:27:35 145.980
JUGNU 27 Sep 20:45:19 20:49:24 19° 345° (NNW) 20:53:28 437.505
LilacSat-2 27 Sep 20:46:00 20:47:57 14° 258° (WSW) 20:49:54 437.200
NOAA 18 27 Sep 20:50:24 20:55:17 33° 257° (WSW) 21:00:09 137.9125
PHONESAT 2.4 27 Sep 20:54:15 20:57:08 49° 223° (SW) 21:00:01 2401.200-2431.200
GOMX 1 27 Sep 20:56:57 21:00:14 16° 258° (WSW) 21:03:32 467.674
CINEMA 3 27 Sep 20:59:07 21:03:43 44° 79° (E) 21:08:05 145.822/145.860
COMPASS 1 27 Sep 21:04:19 21:04:45 10° 78° (ENE) 21:05:11 437.405
GONETS M04 27 Sep 21:08:07 21:16:05 40° 87° (E) 21:24:00
DANDE 27 Sep 21:08:49 21:12:12 73° 277° (W) 21:16:39 436.750
STRAND 1 27 Sep 21:15:25 21:20:28 59° 283° (WNW) 21:25:33 437.568
Cosmos 2499 27 Sep 21:17:01 21:24:29 40° 88° (E) 21:32:24 435.465 / 435.565
DOVE 4 27 Sep 21:20:48 21:24:38 20° 257° (WSW) 21:28:24 437.250
CUTE 1.7 + AOD 2 27 Sep 21:25:34 21:29:44 65° 78° (ENE) 21:33:54 437.475
CANX-2 27 Sep 21:26:39 21:30:52 84° 80° (E) 21:35:04 2200.000
CUSAT 1 27 Sep 21:27:17 21:28:57 12° 282° (WNW) 21:30:44 437.405
SEEDS 27 Sep 21:28:14 21:32:11 42° 79° (E) 21:36:09 437.485
HO-68 27 Sep 21:30:31 21:37:43 78° 76° (ENE) 21:44:53 435.675
SRMSAT 27 Sep 21:38:27 21:43:53 36° 340° (NNW) 21:49:17 437.500
RS-15 27 Sep 21:44:36 21:53:30 28° 293° (WNW) 22:02:51 29.354- 29.394
AAUSAT CUBESAT 2 27 Sep 21:52:24 21:56:18 42° 79° (ENE) 22:00:13 437.432
AO-85 27 Sep 21:59:19 22:03:27 22° 291° (WNW) 22:07:32 145.980
PRISM 27 Sep 22:05:41 22:09:18 31° 102° (ESE) 22:12:54 437.425
CUBEBUG 2 27 Sep 22:10:22 22:14:48 81° 78° (ENE) 22:19:03 437.445
FUNcube-1 27 Sep 22:18:59 22:22:36 28° 79° (E) 22:26:09 145.935
UWE-3 27 Sep 22:29:35 22:33:56 88° 72° (ENE) 22:38:08 435.000/436.395/437.385
COMPASS 1 27 Sep 22:36:27 22:40:02 28° 259° (WSW) 22:43:35 437.405
JUGNU 27 Sep 22:38:17 22:39:20 10° 354° (N) 22:40:24 437.505
Oscar 11 27 Sep 22:58:50 23:03:06 67° 259° (WSW) 23:07:21 145.826/435.025
ANTELSAT 27 Sep 22:59:33 23:01:55 14° 103° (ESE) 23:04:17 437.575/2403.000
ZACube-1 27 Sep 23:00:09 23:04:20 60° 258° (WSW) 23:08:26 437.345
GONETS M04 27 Sep 23:05:43 23:12:30 26° 267° (W) 23:19:18
Cosmos 2499 27 Sep 23:10:50 23:17:17 26° 266° (W) 23:24:06 435.465 / 435.565
DELFI C3 27 Sep 23:16:22 23:20:19 65° 79° (ENE) 23:24:15 145.870
TIGRISAT 27 Sep 23:18:50 23:22:31 24° 102° (ESE) 23:26:15 435.000
HUMSAT D 27 Sep 23:24:53 23:28:32 32° 78° (ENE) 23:32:09 437.325/437.525
SRMSAT 27 Sep 23:29:59 23:33:31 16° 347° (NNW) 23:37:03 437.500
FUNcube-1 27 Sep 23:57:47 23:58:33 10° 257° (WSW) 23:59:19 145.935
UNISAT 6 27 Sep 23:58:23 00:02:55 85° 279° (W) 00:07:35 437.425
JUGNU 28 Sep 00:28:43 00:29:33 10° 5° (N) 00:30:22 437.505
ANTELSAT 28 Sep 00:34:27 00:38:19 28° 281° (WNW) 00:42:15 437.575/2403.000
BEESAT 3 28 Sep 00:35:30 00:39:08 41° 112° (ESE) 00:42:47 437.485
QB50P2 28 Sep 00:35:38 00:39:01 23° 102° (ESE) 00:42:25 145.880/145.840
POLYITAN 1 28 Sep 00:37:50 00:41:14 23° 102° (ESE) 00:44:39 437.675
M-CUBED/EXP-1 PRIME 28 Sep 00:47:37 00:49:51 14° 76° (ENE) 00:52:01 437.505
AISAT 28 Sep 00:52:03 00:55:31 22° 78° (ENE) 00:58:59 437.250
50 SAT 28 Sep 00:53:53 00:56:19 17° 78° (ENE) 00:58:44 437.505
TIGRISAT 28 Sep 00:56:12 00:58:56 16° 281° (WNW) 01:01:42 435.000
UKube-1 28 Sep 01:03:33 01:04:13 10° 78° (ENE) 01:04:53 .
DUCHIFAT 1 28 Sep 01:15:30 01:19:41 72° 102° (ESE) 01:23:54 145.980
QB50P1 28 Sep 01:17:12 01:21:25 88° 276° (W) 01:25:41 145.935-145.965
BUGSAT 1 28 Sep 01:20:09 01:23:25 24° 102° (ESE) 01:26:45 437.445
DX 1 28 Sep 01:28:06 01:32:08 36° 78° (ENE) 01:36:09 434.975-435.025
BEESAT 2 28 Sep 01:30:01 01:33:54 73° 293° (WNW) 01:37:47 435.950
POPSAT HIP 1 28 Sep 01:30:46 01:34:53 56° 282° (WNW) 01:39:04 437.405
ESTCUBE 1 28 Sep 01:34:13 01:38:23 37° 258° (WSW) 01:42:34 437.505/2401.250
VELOX 1 28 Sep 01:34:38 01:39:07 86° 77° (ENE) 01:43:34 145.980
CUBEBUG 1 28 Sep 01:39:50 01:44:11 55° 258° (WSW) 01:48:31 437.445
JAS-2 28 Sep 01:41:35 01:49:05 85° 283° (WNW) 01:55:47 435.910
AUBIESAT-1 28 Sep 01:42:41 01:47:10 65° 75° (ENE) 01:51:22 437.475
NANOSAT C BR1 28 Sep 01:47:40 01:51:27 33° 282° (WNW) 01:55:16 145.865
TISAT 1 28 Sep 02:10:04 02:12:17 14° 78° (ENE) 02:14:30 437.305
QB50P2 28 Sep 02:12:29 02:14:33 13° 282° (WNW) 02:16:38 145.880/145.840
POLYITAN 1 28 Sep 02:14:41 02:16:46 13° 282° (WNW) 02:18:51 437.675
JUGNU 28 Sep 02:15:33 02:19:28 18° 15° (NNE) 02:23:23 437.505
M-CUBED/EXP-1 PRIME 28 Sep 02:20:08 02:24:07 29° 253° (WSW) 02:27:54 437.505
SPROUT 28 Sep 02:22:27 02:26:29 40° 258° (WSW) 02:30:30 437.525
50 SAT 28 Sep 02:28:11 02:29:32 12° 258° (WSW) 02:30:54 437.505
AISAT 28 Sep 02:28:57 02:31:42 16° 257° (WSW) 02:34:28 437.250
UKube-1 28 Sep 02:36:09 02:39:59 31° 258° (WSW) 02:43:48 .
Oscar 19 28 Sep 02:43:12 02:48:02 43° 102° (ESE) 02:52:53 437.125/150
SO-50 28 Sep 02:51:11 02:55:22 44° 68° (ENE) 02:59:33 436.795
Cosmos 2491 28 Sep 02:52:30 02:59:00 23° 87° (E) 03:05:26 435.465 / 435.565
BUGSAT 1 28 Sep 02:57:05 02:58:33 12° 282° (WNW) 03:00:00 437.445
SRMSAT 28 Sep 03:12:19 03:14:04 11° 8° (N) 03:15:49 437.500
YUBILEINY 28 Sep 03:23:09 03:31:07 38° 93° (E) 03:38:59 435.215
ITAMSAT 1 28 Sep 03:38:05 03:40:41 14° 103° (ESE) 03:43:18 435.822/435.867
Gurwin Techsat 1B 28 Sep 03:38:34 03:43:53 80° 103° (ESE) 03:49:13 435.225
TISAT 1 28 Sep 03:44:23 03:47:40 22° 258° (WSW) 03:50:55 437.305
AIST 2 28 Sep 03:50:05 03:54:07 67° 292° (WNW) 03:58:09 435.215
ITUPSAT 1 28 Sep 03:54:43 03:59:19 49° 78° (ENE) 04:03:54 437.325
JUGNU 28 Sep 04:03:19 04:08:50 43° 20° (NNE) 04:14:21 437.505
SWISSCUBE 28 Sep 04:07:45 04:12:31 89° 83° (E) 04:17:16 437.505
BEESAT 28 Sep 04:20:47 04:25:31 70° 258° (WSW) 04:30:14 436.000
Cosmos 2504 28 Sep 04:24:57 04:32:00 34° 94° (E) 04:38:36 435.465 / 435.565
Oscar 19 28 Sep 04:26:04 04:27:04 11° 283° (WNW) 04:28:05 437.125/150
AO-7 28 Sep 04:33:04 04:40:26 36° 106° (ESE) 04:47:50 29.400- 29.500
KKS-1 28 Sep 04:41:52 04:43:02 11° 78° (ENE) 04:44:13 437.445
Cosmos 2491 28 Sep 04:47:14 04:55:25 44° 267° (W) 05:03:38 435.465 / 435.565
PCSat 28 Sep 04:48:56 04:54:16 62° 289° (WNW) 04:59:36 145.827
SRMSAT 28 Sep 04:59:37 05:04:02 21° 16° (NNE) 05:08:29 437.500
ITAMSAT 1 28 Sep 05:15:06 05:19:51 36° 283° (WNW) 05:24:38 435.822/435.867
STARS 28 Sep 05:15:16 05:17:10 13° 78° (ENE) 05:19:03 437.465
YUBILEINY 28 Sep 05:20:22 05:27:29 28° 273° (W) 05:34:37 435.215
MOZHAYETS 4 28 Sep 05:48:53 05:53:11 42° 258° (WSW) 05:57:29
JUGNU 28 Sep 05:52:04 05:57:52 68° 202° (SSW) 06:03:43 437.505
HORYU 2 28 Sep 06:12:04 06:15:44 25° 103° (ESE) 06:19:25 437.375
KKS-1 28 Sep 06:15:21 06:19:20 32° 258° (WSW) 06:23:18 437.445
BRITE-PL 28 Sep 06:17:23 06:18:22 11° 101° (E) 06:19:21 437.365/2234.400
Cosmos 2504 28 Sep 06:18:43 06:24:57 25° 272° (W) 06:30:52 435.465 / 435.565
AIST 1 28 Sep 06:18:51 06:23:16 85° 275° (W) 06:27:39
AO-7 28 Sep 06:25:53 06:32:50 31° 286° (WNW) 06:39:51 29.400- 29.500
O/OREOS (USA 219) 28 Sep 06:37:08 06:38:25 11° 105° (ESE) 06:39:42 437.305
SRMSAT 28 Sep 06:47:42 06:53:29 53° 21° (NNE) 06:59:18 437.500
STARS 28 Sep 06:49:30 06:53:14 27° 257° (WSW) 06:56:58 437.465
NOAA 15 28 Sep 06:58:47 07:02:34 20° 103° (ESE) 07:06:20 137.62
LilacSat-2 28 Sep 07:06:09 07:08:17 14° 102° (ESE) 07:10:26 437.200
CUBESAT XI-V 28 Sep 07:08:06 07:12:36 50° 258° (WSW) 07:17:08 437.345
ISS 28 Sep 07:09:56 07:13:12 70° 235° (SW) 07:16:29 145.825
RS-15 28 Sep 07:13:22 07:24:39 45° 68° (ENE) 07:35:24 29.354- 29.394
Cubesat XI-IV 28 Sep 07:14:10 07:18:24 24° 103° (ESE) 07:22:40 437.490
CUTE-I 28 Sep 07:14:18 07:18:35 25° 103° (ESE) 07:22:53 437.470
GOMX 1 28 Sep 07:41:48 07:45:54 61° 102° (ESE) 07:50:01 467.674
JUGNU 28 Sep 07:42:14 07:47:03 26° 198° (SSW) 07:51:54 437.505
HORYU 2 28 Sep 07:49:37 07:52:01 14° 282° (WNW) 07:54:25 437.375
BRITE-PL 28 Sep 07:53:04 07:56:40 26° 282° (WNW) 08:00:10 437.365/2234.400
NOAA 18 28 Sep 07:53:48 07:59:10 55° 103° (ESE) 08:04:33 137.9125
DOVE 4 28 Sep 08:03:27 08:07:18 38° 102° (ESE) 08:11:18 437.250
STRAND 1 28 Sep 08:10:28 08:14:13 21° 77° (ENE) 08:17:57 437.568
DANDE 28 Sep 08:10:29 08:17:11 33° 82° (E) 08:22:45 436.750
O/OREOS (USA 219) 28 Sep 08:13:36 08:17:32 30° 284° (WNW) 08:21:30 437.305
PHONESAT 2.4 28 Sep 08:18:43 08:21:36 71° 137° (SE) 08:24:29 2401.200-2431.200
CUSAT 1 28 Sep 08:22:49 08:28:55 61° 267° (W) 08:33:33 437.405
AO-85 28 Sep 08:32:18 08:35:45 32° 68° (ENE) 08:39:14 145.980
SRMSAT 28 Sep 08:36:52 08:42:42 56° 201° (SSW) 08:48:35 437.500
NOAA 15 28 Sep 08:37:47 08:42:03 26° 283° (WNW) 08:46:21 137.62
LilacSat-2 28 Sep 08:39:43 08:42:19 17° 281° (W) 08:44:55 437.200
Cubesat XI-IV 28 Sep 08:54:07 08:58:11 22° 283° (WNW) 09:02:18 437.490
CUTE-I 28 Sep 08:54:19 08:58:21 22° 283° (WNW) 09:02:25 437.470
COMPASS 1 28 Sep 09:07:15 09:08:54 12° 102° (ESE) 09:10:33 437.405
CINEMA 3 28 Sep 09:14:56 09:19:16 73° 101° (ESE) 09:23:49 145.822/145.860
HO-68 28 Sep 09:22:07 09:29:11 65° 104° (ESE) 09:36:16 435.675
RS-15 28 Sep 09:26:19 09:36:36 34° 249° (WSW) 09:46:34 29.354- 29.394
Cosmos 2499 28 Sep 09:28:08 09:35:29 49° 94° (E) 09:42:21 435.465 / 435.565
CUTE 1.7 + AOD 2 28 Sep 09:31:46 09:36:03 82° 101° (E) 09:40:19 437.475
CANX-2 28 Sep 09:33:01 09:37:18 78° 281° (WNW) 09:41:35 2200.000
SEEDS 28 Sep 09:33:19 09:37:26 52° 101° (ESE) 09:41:34 437.485
JUGNU 28 Sep 09:34:11 09:36:44 13° 190° (S) 09:39:18 437.505
GONETS M04 28 Sep 09:40:51 09:49:39 77° 93° (E) 09:58:27
STRAND 1 28 Sep 09:49:10 09:53:07 23° 257° (WSW) 09:57:04 437.568
DANDE 28 Sep 09:53:36 09:59:31 25° 270° (W) 10:04:34 436.750
AAUSAT CUBESAT 2 28 Sep 09:55:52 09:59:53 48° 101° (ESE) 10:03:53 437.432
